{"data":{"norad_id":56115,"epoch":"2026-05-24T23:02:27.528576Z","epoch_age_seconds":75114,"freshness":"FRESH","line1":"1 56115U 23046Y   26144.96004084 -.00000094  00000+0  61287-5 0  9993","line2":"2 56115  43.0058  87.6118 0001471 285.4595  74.6094 15.27576606173738","mean_motion":15.27576606,"eccentricity":0.0001471,"inclination_deg":43.0058,"raan_deg":87.6118,"arg_perigee_deg":285.4595,"mean_anomaly_deg":74.6094,"bstar":6.1287e-6,"rev_number":17373,"period_min":94.266958157384,"perigee_km":482.04997694577,"apogee_km":484.06854088514,"semimajor_km":6861.1962589155,"source":"CELESTRAK","updated_at":"2026-05-25T13:38:17.957128Z"}}